Weather History for Ironwood, MI

Change the Weather History Date:

Tuesday, May 28, 2013

  Actual Average Record
Temperature  
Mean Temperature 60 °F -  
Max Temperature 64 °F 63 °F 91 °F (2006)
Min Temperature 55 °F 41 °F 30 °F (2004)
Degree Days  
Heating Degree Days 6    
Growing Degree Days 10 (Base 50)    
Moisture  
Dew Point 47 °F    
Average Humidity 62    
Maximum Humidity 77    
Minimum Humidity 51    
Precipitation  
Precipitation 0.00 in - - ()
Sea Level Pressure  
Sea Level Pressure 29.75 in    
Wind  
Wind Speed 5 mph (SE)    
Max Wind Speed 12 mph    
Max Gust Speed -    
Visibility 10 miles    
Events      
Averages and records for this station are not official NWS values.
T = Trace of Precipitation, MM = Missing Value Source: NWS Daily Summary

Daily Weather History Graph

Daily Weather History Graph

Search for Another Location

Airport:

Trip Planner

Search our weather history database for the weather conditions in past years. The results will help you decide how hot, cold, wet, or windy it might be!

Date:

Astronomy

May. 28, 2013 Rise Set
Actual Time 5:13 AM CDT 8:42 PM CDT
Civil Twilight 4:36 AM CDT 9:20 PM CDT
Nautical Twilight 3:46 AM CDT 10:09 PM CDT
Astronomical Twilight 2:42 AM CDT 11:15 PM CDT
Moon 11:57 PM CDT (5/28) 9:07 AM CDT (5/28)
Length of Visible Light 16h 43m
Length of Day
15h 28m
Waning Gibbous, 82% of the Moon is Illuminated
May 28
Waning Gibbous
May 31
Last Quarter
Jun 8
New
Jun 16
First Quarter
Jun 23
Full

Hourly Weather History & Observations

Time (CDT) Temp. Dew Point Humidity Pressure Visibility Wind Dir Wind Speed Gust Speed Precip Events Conditions
7:15 AM 55.4 °F 39.2 °F 54% 29.81 in 10.0 mi Calm Calm - N/A   Mostly Cloudy
7:35 AM 57.2 °F 39.2 °F 51% 29.81 in 10.0 mi SE 4.6 mph - N/A   Mostly Cloudy
7:55 AM 57.2 °F 39.2 °F 51% 29.81 in 10.0 mi ESE 6.9 mph - N/A   Overcast
8:15 AM 57.2 °F 41.0 °F 55% 29.80 in 10.0 mi ESE 9.2 mph - N/A   Overcast
8:35 AM 57.2 °F 39.2 °F 51% 29.79 in 10.0 mi ESE 8.1 mph - N/A   Overcast
8:55 AM 57.2 °F 41.0 °F 55% 29.79 in 10.0 mi ESE 5.8 mph - N/A   Overcast
9:15 AM 57.2 °F 42.8 °F 59% 29.79 in 10.0 mi ESE 5.8 mph - N/A   Overcast
9:35 AM 57.2 °F 42.8 °F 59% 29.79 in 10.0 mi ESE 6.9 mph - N/A   Overcast
9:55 AM 57.2 °F 42.8 °F 59% 29.79 in 10.0 mi ESE 8.1 mph - N/A   Overcast
10:15 AM 57.2 °F 42.8 °F 59% 29.78 in 10.0 mi ESE 9.2 mph - N/A   Overcast
10:35 AM 57.2 °F 44.6 °F 63% 29.77 in 10.0 mi East 6.9 mph - N/A   Overcast
10:55 AM 57.2 °F 44.6 °F 63% 29.77 in 10.0 mi SE 6.9 mph - N/A   Overcast
11:15 AM 57.2 °F 44.6 °F 63% 29.77 in 10.0 mi SE 10.4 mph - N/A   Overcast
11:35 AM 59.0 °F 44.6 °F 59% 29.76 in 10.0 mi ESE 4.6 mph - N/A   Overcast
11:55 AM 60.8 °F 44.6 °F 55% 29.75 in 10.0 mi East 11.5 mph - N/A   Overcast
12:15 PM 60.8 °F 46.4 °F 59% 29.75 in 10.0 mi ESE 8.1 mph - N/A   Mostly Cloudy
12:35 PM 62.6 °F 46.4 °F 55% 29.75 in 10.0 mi SE 6.9 mph - N/A   Mostly Cloudy
1:55 PM 62.6 °F 48.2 °F 59% 29.73 in 10.0 mi SE 3.5 mph - N/A   Overcast
2:15 PM 64.4 °F 48.2 °F 56% 29.73 in 10.0 mi ESE 4.6 mph - N/A   Overcast
2:35 PM 64.4 °F 48.2 °F 56% 29.73 in 10.0 mi SSE 6.9 mph - N/A   Overcast
2:55 PM 62.6 °F 48.2 °F 59% 29.73 in 10.0 mi SE 5.8 mph - N/A   Overcast
3:15 PM 62.6 °F 48.2 °F 59% 29.73 in 10.0 mi ESE 4.6 mph - N/A   Overcast
3:35 PM 64.4 °F 48.2 °F 56% 29.73 in 10.0 mi Calm Calm - N/A   Overcast
3:55 PM 64.4 °F 50.0 °F 59% 29.72 in 10.0 mi WNW 3.5 mph - N/A   Overcast
4:15 PM 64.4 °F 50.0 °F 59% 29.72 in 10.0 mi ESE 6.9 mph - N/A   Overcast
4:35 PM 64.4 °F 48.2 °F 56% 29.72 in 10.0 mi Calm Calm - N/A   Overcast
4:55 PM 62.6 °F 48.2 °F 59% 29.72 in 10.0 mi ENE 3.5 mph - N/A   Overcast
5:15 PM 64.4 °F 50.0 °F 59% 29.71 in 10.0 mi ESE 5.8 mph - N/A   Overcast
5:35 PM 64.4 °F 50.0 °F 59% 29.71 in 10.0 mi Calm Calm - N/A   Overcast
5:55 PM 64.4 °F 51.8 °F 64% 29.71 in 10.0 mi SE 5.8 mph - N/A   Overcast
6:15 PM 64.4 °F 50.0 °F 59% 29.71 in 10.0 mi Calm Calm - N/A   Overcast
6:35 PM 64.4 °F 50.0 °F 59% 29.71 in 10.0 mi South 4.6 mph - N/A   Overcast
6:55 PM 62.6 °F 51.8 °F 68% 29.72 in 10.0 mi South 5.8 mph - N/A   Overcast
9:15 PM 60.8 °F 50.0 °F 68% 29.72 in 10.0 mi South 3.5 mph - N/A   Overcast
9:35 PM 59.0 °F 50.0 °F 72% 29.72 in 10.0 mi South 3.5 mph - N/A   Overcast
9:55 PM 59.0 °F 50.0 °F 72% 29.71 in 10.0 mi Calm Calm - N/A   Overcast
10:15 PM 59.0 °F 50.0 °F 72% 29.71 in 10.0 mi South 3.5 mph - N/A   Overcast
10:35 PM 57.2 °F 50.0 °F 77% 29.73 in 10.0 mi South 4.6 mph - N/A   Overcast
10:55 PM 57.2 °F 50.0 °F 77% 29.73 in 10.0 mi SSW 3.5 mph - N/A   Overcast
11:15 PM 57.2 °F 50.0 °F 77% 29.73 in 10.0 mi South 3.5 mph - N/A   Scattered Clouds
11:35 PM 57.2 °F 50.0 °F 77% 29.73 in 10.0 mi South 3.5 mph - N/A   Clear
11:55 PM 57.2 °F 50.0 °F 77% 29.74 in 10.0 mi South 5.8 mph - N/A   Scattered Clouds